Weather Service Report


220 
ASUS43 KLSX 300710
RWRMO 

WEATHER SUMMARY FOR MISSOURI
NATIONAL WEATHER SERVICE SPRINGFIELD MO
200 AM CDT MON MAY 30 2016

NOTE: "FAIR" INDICATES FEW OR NO CLOUDS BELOW 12,000 FEET WITH NO
       SIGNIFICANT WEATHER AND/OR OBSTRUCTIONS TO VISIBILITY.
       CURRENT SKY AND/OR WEATHER CONDITIONS ARE NOT AVAILABLE FOR
       CHILLICOTHE AND FARMINGTON.

MOZ001>031-035>038-043-044-053-054-300800-
...NORTHERN AND WESTERN MISSOURI...
  
CITY           SKY/WX    TMP DP  RH WIND       PRES   REMARKS
KANSAS CTY INT CLOUDY    65  59  81 S7        30.04F                  
KANSAS C DTWN  CLOUDY    72  60  66 S3        30.03F                  
LEE'S SUMMIT   CLEAR     70  61  73 S6        30.05F                  
ST JOSEPH      CLOUDY    68  61  78 CALM      30.02F                  
CHILLICOTHE      N/A     66  63  90 CALM      30.04F                  
KIRKSVILLE     CLOUDY    68  62  81 SW3       30.05S                  
     
$$
MOZ066>068-077>081-088>096-101>105-300800-
...SOUTHWEST MISSOURI...
  
CITY           SKY/WX    TMP DP  RH WIND       PRES   REMARKS
SPRINGFIELD    CLEAR     67  62  84 S3        30.07F                  
JOPLIN         PTCLDY    66  64  93 S3        30.06F                  
               
$$
MOZ032>034-039>042-045>050-055>058-069>072-300800-
...CENTRAL MISSOURI...  
  
CITY           SKY/WX    TMP DP  RH WIND       PRES   REMARKS
COLUMBIA       PTCLDY    69  62  78 S6        30.07R                  
JEFFERSON CITY CLEAR     65  62  90 CALM      30.06R                  
ROLLA          CLEAR     64  60  87 SW8       30.07S                  
SEDALIA        PTCLDY    66  62  87 S5        30.07S                  
WHITEMAN AFB   CLEAR     67  67 100 S3        30.04F                  
WARRENSBURG    CLEAR     63  61  94 CALM      30.05S                  
               
$$
MOZ051-052-059>065-300800-
...EAST CENTRAL MISSOURI...
  
CITY           SKY/WX    TMP DP  RH WIND       PRES   REMARKS
ST LOUIS INTL  CLOUDY    72  60  66 CALM      30.06R                  
SPIRIT OF STL  PTCLDY    65  63  93 CALM      30.05R                  
ST CHARLES     CLOUDY    67  66  97 W3        30.04S                  
                   
$$
MOZ072>076-082>087-097>100-106>115-300800-
...SOUTH CENTRAL AND SOUTHEAST MISSOURI...
  
CITY           SKY/WX    TMP DP  RH WIND       PRES   REMARKS
CAPE GIRARDEAU CLEAR     64  62  93 CALM      30.05S                  
FARMINGTON     CLEAR     62  61  96 CALM      30.08F                  
POPLAR BLUFF   CLEAR     68  66  93 N3        30.04F                  
WEST PLAINS    CLEAR     63  59  87 CALM      30.10F                  
                                       
$$
  

Return to Home page


Western Regional Climate Center, wrcc@dri.edu